This is the latest recevied weather packets stored in our database for station/object K4SHP-15. If no packets are shown the sender has not sent any weather packets the latest 10 day(s).
| Time | Temp. | Humidity | Pressure | Rain* | Wind** | Luminosity | Snow |
|---|---|---|---|---|---|---|---|
| 1777737263 | 13.33° C | 96% | 1010.4 hPa | 1.27 mm | - | - | - |
| 1777732583 | 13.33° C | 96% | 1010.4 hPa | 1.78 mm | - | - | - |
| 1777729502 | 13.89° C | 96% | 1010 hPa | 0 mm | - | - | - |
| 1777727363 | 14.44° C | 97% | 1008.6 hPa | 0 mm | - | - | - |
| 1777726442 | 14.44° C | 97% | 1008.8 hPa | 0 mm | - | - | - |
| 1777721762 | 14.44° C | 97% | 1009.7 hPa | 0.76 mm | - | - | - |
| 1777720142 | 14.44° C | 97% | 1009.7 hPa | 0.76 mm | - | - | - |
| 1777715642 | 14.44° C | 97% | 1009.2 hPa | 3.05 mm | - | - | - |
| 1777713482 | 13.89° C | 96% | 1009.6 hPa | 3.3 mm | - | - | - |
| 1777710962 | 14.44° C | 95% | 1009.7 hPa | 2.29 mm | - | - | - |
| 1777709363 | 14.44° C | 93% | 1009.1 hPa | 0.51 mm | - | - | - |
| 1777706303 | 15.56° C | 89% | 1008.9 hPa | 0 mm | - | - | - |
| 1777693502 | 15.56° C | 86% | 1010.7 hPa | 0 mm | - | - | - |
| 1777690442 | 16.11° C | 84% | 1010.8 hPa | 0 mm | - | - | - |
| 1777689923 | 16.11° C | 84% | 1010.8 hPa | 0 mm | - | - | - |
| 1777688282 | 16.11° C | 84% | 1011.1 hPa | 0 mm | - | - | - |
| 1777683264 | 16.67° C | 83% | 1010.7 hPa | 0 mm | - | - | - |
| 1777678562 | 17.78° C | 79% | 1010.5 hPa | 0 mm | - | - | - |
| 1777678022 | 17.78° C | 79% | 1010.5 hPa | 0 mm | - | - | - |
| 1777676402 | 18.33° C | 78% | 1010.5 hPa | 0 mm | - | - | - |
| 1777674983 | 18.33° C | 77% | 1010.7 hPa | 0 mm | - | - | - |
| 1777671902 | 18.33° C | 77% | 1010.8 hPa | 0 mm | - | - | - |
| 1777667763 | 18.33° C | 77% | 1010.7 hPa | 0 mm | - | - | - |
| 1777666142 | 18.33° C | 78% | 1011.3 hPa | 0 mm | - | - | - |
| 1777661103 | 17.22° C | 75% | 1011.7 hPa | 0 mm | - | - | - |
* Rain latest hour (hover to see other rain measurements)
** Current wind speed in m/s (hover to see current wind gust speed)